Location: B?ezina
(49.8085°N, 13.6013°E)
Time: 21:01:50
(UTC+00:00)

Cosmos 2322 Rocket - Pass Details

Date: 19 May 2025
Orbit: 832 x 850 km, 71.0° (Epoch: 15 June)

Event Time Altitude Azimuth Distance (km) Brightness Sun altitude
Rises 21:05:55 0° 334° (NNW) 3,419 7.3 -15.6°
Reaches altitude 10° 21:08:49 10° 347° (NNW) 2,478 5.9 -15.8°
Maximum altitude 21:13:31 26° 43° (NE) 1,618 3.9 -16.2°
Drops below altitude 10° 21:18:10 10° 98° (E) 2,458 4.3 -16.5°
Enters shadow 21:18:32 - 101° (E) 2,571 4.4 -16.5°
